METEOR 2-17 DEB, 29300

Orbit data source: Space-Track

METEOR 2-17 DEB, 29300 is space debris in LEO originally from a launch on Sat, 30 Jan 1988 UTC launched from the Plesetsk Missile And Space Complex (PKMTR). Debris objects in space refer to the collection of defunct objects orbiting the Earth. Examples of debris include non-operational satellites, rocket bodies, and fragments generated from explosions, collisions, or faulty payload assembly.

Loading next visibility...
Identifier
29300, 1988-005P
Orbit
LEO
Country
Flag of CISCIS
Related business
Manufacturer
Unknown
Mission
Spacecraft
Bus & Motor
Unknown
Mass
Unknown
Launch date (UTC)
1988-01-30 (38 years ago)
Launch vehicle
Unknown
Launch site
Plesetsk Missile And Space Complex (PKMTR)
Object type
Payload
Rocket body
Debris
Shape & HBR
Unknown shape, 0.1 m
Radar Cross Section
Small (<0.1 m²)

Expand to show TLE details & history
Last TLE update: 4 days ago

TLE from 4 days ago
0 METEOR 2-17 DEB
1 29300U 88005P   25348.92135403  .00002965  00000-0  18249-2 0  9992
2 29300  82.5446  51.3700 0035436 153.9127 206.3841 14.04947594993204
Epoch: 2025-12-14T22:06Z
TLE epoch observation values (Epoch: 2025-12-14T22:06:44.988Z)
Latitude
0.00004°
Longitude
-4.14478°
Altitude
902.697 km
Speed
7.389 km/s
True Right ascension
03h 25m 28s
True Declination
0° 00' 00"
Sunlit
Object was in full shadow at epoch
Visualization orbit readout
Latitude
Unknown
Longitude
Unknown
Altitude
Unknown
Speed
Unknown
Apparent Right ascension
Unknown
Apparent Declination
Unknown
Sunlit
N/A
Visualization observer readout
Local Sidereal Time
20:33:04
Azimuth
Unknown
Elevation
Unknown
Doppler factor
Unknown
Orbital elements
Apogee altitude
899.534 km
Perigee altitude
848.138 km
Semi-major axis
7,251.973 km
Eccentricity
0.00354
Inclination
82.5446°
RAAN
51.37°
Arg. of periapsis
153.9127°
True anomaly
206.20436°
Mean anomaly
206.3841°
Eccentric anomaly
206.29416°
Mean motion
3.51446 °/min
Orbital period
102.43 mins
BSTAR
0.0018249
Loading maneuver chart data...
Computing Atmospheric mass density...
Loading historical data...
Loading historical data...
Loading historical data...
Loading historical data...
Loading historical data...
Loading historical data...
Loading historical data...

Documentation

Showing up to 5 results
|